Time,TemperatureF,DewpointF,PressureIn,WindDirection,WindDirectionDegrees,WindSpeedMPH,WindSpeedGustMPH,Humidity,HourlyPrecipIn,Conditions,Clouds,dailyrainin,SoftwareType,DateUTC
2013-11-07 00:00:00,54.7,49.0,30.09,ESE,111,0.0,0.0,81,0.00,CLR,,0.00,WeatherDisplay:10.37,2013-11-07 05:00:00,
2013-11-07 00:05:00,54.5,49.1,30.09,ESE,111,0.0,0.0,82,0.00,CLR,,0.00,WeatherDisplay:10.37,2013-11-07 05:05:00,
2013-11-07 00:10:00,54.5,49.1,30.09,ESE,111,0.0,0.0,82,0.00,CLR,,0.00,WeatherDisplay:10.37,2013-11-07 05:10:00,
2013-11-07 00:15:00,54.5,49.1,30.09,ESE,111,0.0,0.0,82,0.00,CLR,,0.00,WeatherDisplay:10.37,2013-11-07 05:15:00,
2013-11-07 00:20:00,54.3,49.3,30.09,ESE,111,0.0,0.0,83,0.00,CLR,,0.00,WeatherDisplay:10.37,2013-11-07 05:20:00,
2013-11-07 00:25:00,54.5,49.4,30.09,ESE,111,0.0,0.0,83,0.00,CLR,,0.00,WeatherDisplay:10.37,2013-11-07 05:25:00,
2013-11-07 00:30:00,54.3,49.3,30.09,ESE,111,0.0,0.0,83,0.00,CLR,,0.00,WeatherDisplay:10.37,2013-11-07 05:30:00,
2013-11-07 00:40:00,54.3,49.6,30.09,ESE,111,0.0,0.0,84,0.00,CLR,,0.00,WeatherDisplay:10.37,2013-11-07 05:40:00,
2013-11-07 00:50:00,54.3,49.6,30.09,ESE,111,0.0,0.0,84,0.00,CLR,,0.00,WeatherDisplay:10.37,2013-11-07 05:50:00,
2013-11-07 01:00:00,54.3,49.9,30.09,ESE,111,0.0,0.0,85,0.00,CLR,,0.00,WeatherDisplay:10.37,2013-11-07 06:00:00,
2013-11-07 01:05:00,54.3,49.9,30.09,ESE,111,0.0,0.0,85,0.00,CLR,,0.00,WeatherDisplay:10.37,2013-11-07 06:05:00,
2013-11-07 01:10:00,54.3,49.9,30.09,ESE,111,0.0,0.0,85,0.00,CLR,,0.00,WeatherDisplay:10.37,2013-11-07 06:10:00,
2013-11-07 01:15:00,54.1,49.7,30.09,ESE,111,0.0,0.0,85,0.00,CLR,,0.00,WeatherDisplay:10.37,2013-11-07 06:15:00,
2013-11-07 01:20:00,54.1,49.7,30.09,ESE,111,0.0,0.0,85,0.00,CLR,,0.00,WeatherDisplay:10.37,2013-11-07 06:20:00,
2013-11-07 01:25:00,54.1,50.0,30.09,ESE,111,0.0,0.0,86,0.00,CLR,,0.00,WeatherDisplay:10.37,2013-11-07 06:25:00,
2013-11-07 01:30:00,54.1,50.0,30.09,ESE,111,0.0,0.0,86,0.00,CLR,,0.00,WeatherDisplay:10.37,2013-11-07 06:30:00,
2013-11-07 01:40:00,54.0,49.9,30.09,ESE,111,0.0,0.0,86,0.00,CLR,,0.00,WeatherDisplay:10.37,2013-11-07 06:40:00,
2013-11-07 01:45:00,54.0,49.9,30.06,ESE,111,0.0,0.0,86,0.00,CLR,,0.00,WeatherDisplay:10.37,2013-11-07 06:45:00,
2013-11-07 01:50:00,54.0,50.2,30.06,ESE,111,0.0,0.0,87,0.00,CLR,,0.00,WeatherDisplay:10.37,2013-11-07 06:50:00,
2013-11-07 01:55:00,54.0,50.2,30.06,ESE,111,0.0,0.0,87,0.00,CLR,,0.00,WeatherDisplay:10.37,2013-11-07 06:55:00,
2013-11-07 02:00:00,54.0,50.2,30.06,ESE,111,0.0,0.0,87,0.00,CLR,,0.00,WeatherDisplay:10.37,2013-11-07 07:00:00,
2013-11-07 02:05:00,54.0,50.2,30.06,ESE,111,0.0,0.0,87,0.00,CLR,,0.00,WeatherDisplay:10.37,2013-11-07 07:05:00,
2013-11-07 02:10:00,54.0,50.2,30.06,ESE,111,0.0,0.0,87,0.00,CLR,,0.00,WeatherDisplay:10.37,2013-11-07 07:10:00,
2013-11-07 02:15:00,54.0,50.2,30.06,ESE,111,0.0,0.0,87,0.00,CLR,,0.00,WeatherDisplay:10.37,2013-11-07 07:15:00,
2013-11-07 02:20:00,54.0,50.5,30.06,ESE,111,0.0,0.0,88,0.00,CLR,,0.00,WeatherDisplay:10.37,2013-11-07 07:20:00,
2013-11-07 02:25:00,54.0,50.5,30.06,ESE,111,0.0,0.0,88,0.00,CLR,,0.00,WeatherDisplay:10.37,2013-11-07 07:25:00,
2013-11-07 02:30:00,54.0,50.5,30.06,ESE,111,0.0,0.0,88,0.00,CLR,,0.00,WeatherDisplay:10.37,2013-11-07 07:30:00,
2013-11-07 02:35:00,54.0,50.5,30.06,ESE,111,0.0,0.0,88,0.00,CLR,,0.00,WeatherDisplay:10.37,2013-11-07 07:35:00,
2013-11-07 02:40:00,54.0,50.5,30.06,ESE,111,0.0,0.0,88,0.00,CLR,,0.00,WeatherDisplay:10.37,2013-11-07 07:40:00,
2013-11-07 02:45:00,54.0,50.5,30.06,ESE,111,0.0,0.0,88,0.00,CLR,,0.00,WeatherDisplay:10.37,2013-11-07 07:45:00,
2013-11-07 02:50:00,53.9,50.4,30.06,ESE,111,0.0,0.0,88,0.00,CLR,,0.00,WeatherDisplay:10.37,2013-11-07 07:50:00,
2013-11-07 02:55:00,53.8,50.3,30.06,ESE,111,0.0,0.0,88,0.00,CLR,,0.00,WeatherDisplay:10.37,2013-11-07 07:55:00,
2013-11-07 03:00:00,53.8,50.3,30.03,ESE,111,0.0,0.0,88,0.00,CLR,,0.00,WeatherDisplay:10.37,2013-11-07 08:00:00,
2013-11-07 03:05:00,53.8,50.6,30.03,ESE,111,0.0,0.0,89,0.00,CLR,,0.00,WeatherDisplay:10.37,2013-11-07 08:05:00,
2013-11-07 03:10:00,53.8,50.6,30.03,ESE,111,0.0,0.0,89,0.00,CLR,,0.00,WeatherDisplay:10.37,2013-11-07 08:10:00,
2013-11-07 03:15:00,53.8,50.6,30.03,ESE,111,0.0,0.0,89,0.00,CLR,,0.00,WeatherDisplay:10.37,2013-11-07 08:15:00,
2013-11-07 03:20:00,53.6,50.4,30.03,ESE,111,0.0,0.0,89,0.00,CLR,,0.00,WeatherDisplay:10.37,2013-11-07 08:20:00,
2013-11-07 03:30:00,53.6,50.4,30.03,ESE,111,0.0,0.0,89,0.00,CLR,,0.00,WeatherDisplay:10.37,2013-11-07 08:30:00,
2013-11-07 03:35:00,53.4,50.3,30.03,ESE,111,0.0,0.0,89,0.00,CLR,,0.00,WeatherDisplay:10.37,2013-11-07 08:35:00,
2013-11-07 03:40:00,53.4,50.3,30.03,ESE,111,0.0,0.0,89,0.00,CLR,,0.00,WeatherDisplay:10.37,2013-11-07 08:40:00,
2013-11-07 03:45:00,53.4,50.3,30.03,ESE,111,0.0,0.0,89,0.00,CLR,,0.00,WeatherDisplay:10.37,2013-11-07 08:45:00,
2013-11-07 03:50:00,53.2,50.1,30.03,ESE,111,0.0,0.0,89,0.00,CLR,,0.00,WeatherDisplay:10.37,2013-11-07 08:50:00,
2013-11-07 03:55:00,53.2,50.1,30.03,ESE,111,0.0,0.0,89,0.00,CLR,,0.00,WeatherDisplay:10.37,2013-11-07 08:55:00,
2013-11-07 04:00:00,53.1,49.9,30.03,ESE,111,0.0,0.0,89,0.00,CLR,,0.00,WeatherDisplay:10.37,2013-11-07 09:00:00,
2013-11-07 04:05:00,53.1,50.2,30.03,ESE,111,0.0,0.0,90,0.00,CLR,,0.00,WeatherDisplay:10.37,2013-11-07 09:05:00,
2013-11-07 04:10:00,53.1,50.2,30.03,ESE,111,0.0,0.0,90,0.00,CLR,,0.00,WeatherDisplay:10.37,2013-11-07 09:10:00,
2013-11-07 04:15:00,52.9,50.0,30.03,ESE,111,0.0,0.0,90,0.00,CLR,,0.00,WeatherDisplay:10.37,2013-11-07 09:15:00,
2013-11-07 04:20:00,52.7,49.8,30.03,ESE,111,0.0,0.0,90,0.00,CLR,,0.00,WeatherDisplay:10.37,2013-11-07 09:20:00,
2013-11-07 04:25:00,52.7,49.8,30.03,ESE,111,0.0,0.0,90,0.00,CLR,,0.00,WeatherDisplay:10.37,2013-11-07 09:25:00,
2013-11-07 04:30:00,52.5,49.7,30.00,ESE,111,0.0,0.0,90,0.00,CLR,,0.00,WeatherDisplay:10.37,2013-11-07 09:30:00,
2013-11-07 04:35:00,52.5,49.7,30.00,ESE,111,0.0,0.0,90,0.00,CLR,,0.00,WeatherDisplay:10.37,2013-11-07 09:35:00,
2013-11-07 04:40:00,52.3,49.5,30.00,ESE,111,0.0,0.0,90,0.00,CLR,,0.00,WeatherDisplay:10.37,2013-11-07 09:40:00,
2013-11-07 04:45:00,52.2,49.3,30.00,ESE,111,0.0,0.0,90,0.00,CLR,,0.00,WeatherDisplay:10.37,2013-11-07 09:45:00,
2013-11-07 04:50:00,52.0,49.1,30.00,ESE,111,0.0,0.0,90,0.00,CLR,,0.00,WeatherDisplay:10.37,2013-11-07 09:50:00,
2013-11-07 05:00:00,51.8,49.0,30.00,ESE,111,0.0,0.0,90,0.00,CLR,,0.00,WeatherDisplay:10.37,2013-11-07 10:00:00,
2013-11-07 05:05:00,51.6,48.8,30.00,ESE,111,0.0,0.0,90,0.00,CLR,,0.00,WeatherDisplay:10.37,2013-11-07 10:05:00,
2013-11-07 05:10:00,51.4,48.6,30.00,ESE,111,0.0,0.0,90,0.00,CLR,,0.00,WeatherDisplay:10.37,2013-11-07 10:10:00,
2013-11-07 05:15:00,51.3,48.4,30.00,ESE,111,0.0,0.0,90,0.00,CLR,,0.00,WeatherDisplay:10.37,2013-11-07 10:15:00,
2013-11-07 05:20:00,51.1,48.2,30.00,ESE,111,0.0,0.0,90,0.00,CLR,,0.00,WeatherDisplay:10.37,2013-11-07 10:20:00,
2013-11-07 05:25:00,51.1,48.2,30.00,ESE,111,0.0,0.0,90,0.00,CLR,,0.00,WeatherDisplay:10.37,2013-11-07 10:25:00,
2013-11-07 05:30:00,50.9,48.1,30.00,ESE,111,0.0,0.0,90,0.00,CLR,,0.00,WeatherDisplay:10.37,2013-11-07 10:30:00,
2013-11-07 05:40:00,50.6,48.1,30.00,ESE,111,0.0,0.0,91,0.00,CLR,,0.00,WeatherDisplay:10.37,2013-11-07 10:40:00,
2013-11-07 05:45:00,50.5,48.0,30.00,ESE,111,0.0,0.0,91,0.00,CLR,,0.00,WeatherDisplay:10.37,2013-11-07 10:45:00,
2013-11-07 05:50:00,50.4,47.8,30.00,ESE,111,0.0,0.0,91,0.00,CLR,,0.00,WeatherDisplay:10.37,2013-11-07 10:50:00,
2013-11-07 05:55:00,50.4,47.8,30.00,ESE,111,0.0,0.0,91,0.00,CLR,,0.00,WeatherDisplay:10.37,2013-11-07 10:55:00,
2013-11-07 06:00:00,50.2,47.7,30.00,ESE,111,0.0,0.0,91,0.00,CLR,,0.00,WeatherDisplay:10.37,2013-11-07 11:00:00,
2013-11-07 06:05:00,50.0,47.5,30.00,ESE,111,0.0,0.0,91,0.00,CLR,,0.00,WeatherDisplay:10.37,2013-11-07 11:05:00,
2013-11-07 06:10:00,50.0,47.5,30.00,ESE,111,0.0,0.0,91,0.00,CLR,,0.00,WeatherDisplay:10.37,2013-11-07 11:10:00,
2013-11-07 06:15:00,50.0,47.5,30.00,ESE,111,0.0,0.0,91,0.00,CLR,,0.00,WeatherDisplay:10.37,2013-11-07 11:15:00,
2013-11-07 06:20:00,49.8,47.3,30.00,ESE,111,0.0,0.0,91,0.00,CLR,,0.00,WeatherDisplay:10.37,2013-11-07 11:20:00,
2013-11-07 06:25:00,49.8,47.3,30.00,ESE,111,0.0,0.0,91,0.00,CLR,,0.00,WeatherDisplay:10.37,2013-11-07 11:25:00,
2013-11-07 06:30:00,49.8,47.3,30.00,ESE,111,0.0,0.0,91,0.00,CLR,,0.00,WeatherDisplay:10.37,2013-11-07 11:30:00,
2013-11-07 06:35:00,49.8,47.3,30.00,ESE,111,0.0,0.0,91,0.00,CLR,,0.00,WeatherDisplay:10.37,2013-11-07 11:35:00,
2013-11-07 06:40:00,49.6,47.1,30.00,ESE,111,0.0,0.0,91,0.00,CLR,,0.00,WeatherDisplay:10.37,2013-11-07 11:40:00,
2013-11-07 06:45:00,49.6,47.1,30.00,ESE,111,0.0,0.0,91,0.00,CLR,,0.00,WeatherDisplay:10.37,2013-11-07 11:45:00,
2013-11-07 06:50:00,49.6,47.1,30.00,ESE,111,0.0,0.0,91,0.00,CLR,,0.00,WeatherDisplay:10.37,2013-11-07 11:50:00,
2013-11-07 07:00:00,49.6,47.1,30.00,ESE,111,0.0,0.0,91,0.00,CLR,,0.00,WeatherDisplay:10.37,2013-11-07 12:00:00,
2013-11-07 07:05:00,49.5,46.9,30.00,ESE,111,0.0,0.0,91,0.00,CLR,,0.00,WeatherDisplay:10.37,2013-11-07 12:05:00,
2013-11-07 07:10:00,49.5,46.9,30.00,ESE,111,0.0,0.0,91,0.00,CLR,,0.00,WeatherDisplay:10.37,2013-11-07 12:10:00,
2013-11-07 07:20:00,49.5,47.2,30.00,ESE,111,0.0,0.0,92,0.00,CLR,,0.00,WeatherDisplay:10.37,2013-11-07 12:20:00,
2013-11-07 07:25:00,49.6,47.4,30.00,ESE,111,0.0,0.0,92,0.00,CLR,,0.00,WeatherDisplay:10.37,2013-11-07 12:25:00,
2013-11-07 07:30:00,49.6,47.4,30.00,ESE,111,0.0,0.0,92,0.00,CLR,,0.00,WeatherDisplay:10.37,2013-11-07 12:30:00,
2013-11-07 07:40:00,49.8,47.6,30.00,ESE,111,0.0,0.0,92,0.00,CLR,,0.00,WeatherDisplay:10.37,2013-11-07 12:40:00,
2013-11-07 07:45:00,50.0,48.1,30.00,ESE,111,0.0,0.0,93,0.00,CLR,,0.00,WeatherDisplay:10.37,2013-11-07 12:45:00,
2013-11-07 07:50:00,50.0,48.1,30.00,ESE,111,0.0,0.0,93,0.00,CLR,,0.00,WeatherDisplay:10.37,2013-11-07 12:50:00,
2013-11-07 07:55:00,50.2,48.2,30.00,ESE,111,0.0,0.0,93,0.00,CLR,,0.00,WeatherDisplay:10.37,2013-11-07 12:55:00,
2013-11-07 08:00:00,50.5,48.5,30.00,ESE,111,0.0,0.0,93,0.00,CLR,,0.00,WeatherDisplay:10.37,2013-11-07 13:00:00,
2013-11-07 08:05:00,50.7,49.1,30.00,ESE,111,0.0,0.0,94,0.00,CLR,,0.00,WeatherDisplay:10.37,2013-11-07 13:05:00,
2013-11-07 08:10:00,51.1,49.4,30.00,ESE,111,0.0,0.0,94,0.00,CLR,,0.00,WeatherDisplay:10.37,2013-11-07 13:10:00,
2013-11-07 08:20:00,52.0,50.3,30.00,ESE,111,0.0,0.0,94,0.00,CLR,,0.00,WeatherDisplay:10.37,2013-11-07 13:20:00,
2013-11-07 08:25:00,52.5,51.1,30.00,ESE,111,0.0,0.0,95,0.00,CLR,,0.00,WeatherDisplay:10.37,2013-11-07 13:25:00,
2013-11-07 08:30:00,53.3,51.9,30.00,ESE,111,0.0,0.0,95,0.00,CLR,,0.00,WeatherDisplay:10.37,2013-11-07 13:30:00,
2013-11-07 08:35:00,54.0,52.6,30.00,ESE,111,0.0,0.0,95,0.00,CLR,,0.00,WeatherDisplay:10.37,2013-11-07 13:35:00,
2013-11-07 08:40:00,54.7,53.3,30.00,East,96,0.0,0.0,95,0.00,CLR,,0.00,WeatherDisplay:10.37,2013-11-07 13:40:00,
2013-11-07 08:50:00,56.3,55.2,30.00,SE,138,0.0,0.0,96,0.00,CLR,,0.00,WeatherDisplay:10.37,2013-11-07 13:50:00,
2013-11-07 08:55:00,57.0,55.9,30.00,SE,133,0.0,0.0,96,0.00,CLR,,0.00,WeatherDisplay:10.37,2013-11-07 13:55:00,
2013-11-07 09:00:00,57.6,56.5,30.00,East,99,0.0,0.0,96,0.00,CLR,,0.00,WeatherDisplay:10.37,2013-11-07 14:00:00,
2013-11-07 09:05:00,58.2,57.0,30.00,NNW,332,0.0,0.0,96,0.00,CLR,,0.00,WeatherDisplay:10.37,2013-11-07 14:05:00,
2013-11-07 09:10:00,58.8,57.7,30.00,WNW,299,0.0,3.0,96,0.00,CLR,,0.00,WeatherDisplay:10.37,2013-11-07 14:10:00,
2013-11-07 09:15:00,59.2,58.0,30.00,NW,314,0.0,0.0,96,0.00,CLR,,0.00,WeatherDisplay:10.37,2013-11-07 14:15:00,
2013-11-07 09:20:00,59.5,58.3,30.00,NNE,12,0.0,0.0,96,0.00,CLR,,0.00,WeatherDisplay:10.37,2013-11-07 14:20:00,
2013-11-07 09:30:00,60.0,58.9,30.00,West,278,0.0,3.0,96,0.00,CLR,,0.00,WeatherDisplay:10.37,2013-11-07 14:30:00,
2013-11-07 09:40:00,60.4,59.3,30.00,West,262,0.0,0.0,96,0.00,CLR,,0.00,WeatherDisplay:10.37,2013-11-07 14:40:00,
2013-11-07 09:45:00,60.7,59.8,30.00,NW,308,0.0,0.0,97,0.00,CLR,,0.00,WeatherDisplay:10.37,2013-11-07 14:45:00,
2013-11-07 09:50:00,61.0,60.1,30.00,NNW,346,0.0,4.0,97,0.00,CLR,,0.00,WeatherDisplay:10.37,2013-11-07 14:50:00,
2013-11-07 09:55:00,61.3,60.5,30.00,NW,318,3.0,7.0,97,0.00,CLR,,0.00,WeatherDisplay:10.37,2013-11-07 14:55:00,
2013-11-07 10:00:00,61.7,60.8,30.00,NW,309,0.0,7.0,97,0.00,CLR,,0.00,WeatherDisplay:10.37,2013-11-07 15:00:00,
2013-11-07 10:05:00,61.9,60.7,30.00,WNW,282,0.0,6.0,96,0.00,CLR,,0.00,WeatherDisplay:10.37,2013-11-07 15:05:00,
2013-11-07 10:10:00,62.1,60.9,30.00,WNW,301,1.0,7.0,96,0.00,CLR,,0.00,WeatherDisplay:10.37,2013-11-07 15:10:00,
2013-11-07 10:15:00,62.1,60.9,30.00,NNW,329,0.0,0.0,96,0.00,CLR,,0.00,WeatherDisplay:10.37,2013-11-07 15:15:00,
2013-11-07 10:20:00,62.1,60.6,30.00,NNW,345,0.0,0.0,95,0.00,CLR,,0.00,WeatherDisplay:10.37,2013-11-07 15:20:00,
2013-11-07 10:25:00,62.1,60.6,30.00,North,357,0.0,5.0,95,0.00,CLR,,0.00,WeatherDisplay:10.37,2013-11-07 15:25:00,
2013-11-07 10:30:00,62.1,60.6,30.00,NE,38,0.0,0.0,95,0.00,CLR,,0.00,WeatherDisplay:10.37,2013-11-07 15:30:00,
2013-11-07 10:40:00,62.4,60.7,30.00,SSE,147,0.0,0.0,94,0.00,CLR,,0.00,WeatherDisplay:10.37,2013-11-07 15:40:00,
2013-11-07 10:45:00,62.8,61.0,29.97,NW,306,0.0,0.0,94,0.00,CLR,,0.00,WeatherDisplay:10.37,2013-11-07 15:45:00,
2013-11-07 10:50:00,63.4,61.7,29.97,NNW,334,0.0,7.0,94,0.00,CLR,,0.00,WeatherDisplay:10.37,2013-11-07 15:50:00,
2013-11-07 10:55:00,64.1,62.1,29.97,SW,232,0.0,7.0,93,0.00,CLR,,0.00,WeatherDisplay:10.37,2013-11-07 15:55:00,
2013-11-07 11:00:00,64.8,62.4,29.97,SSW,212,0.0,5.0,92,0.00,CLR,,0.00,WeatherDisplay:10.37,2013-11-07 16:00:00,
2013-11-07 11:05:00,65.3,62.6,29.97,SW,236,0.0,0.0,91,0.00,CLR,,0.00,WeatherDisplay:10.37,2013-11-07 16:05:00,
2013-11-07 11:10:00,65.7,62.3,29.97,WSW,253,0.0,0.0,89,0.00,CLR,,0.00,WeatherDisplay:10.37,2013-11-07 16:10:00,
2013-11-07 11:15:00,66.0,62.4,29.97,NW,308,0.0,3.0,88,0.00,CLR,,0.00,WeatherDisplay:10.37,2013-11-07 16:15:00,
2013-11-07 11:20:00,66.0,62.0,29.97,NNW,334,0.0,0.0,87,0.00,CLR,,0.00,WeatherDisplay:10.37,2013-11-07 16:20:00,
2013-11-07 11:25:00,66.0,61.7,29.97,NW,323,0.0,0.0,86,0.00,CLR,,0.00,WeatherDisplay:10.37,2013-11-07 16:25:00,
2013-11-07 11:30:00,65.8,61.2,29.97,WNW,288,0.0,0.0,85,0.00,CLR,,0.00,WeatherDisplay:10.37,2013-11-07 16:30:00,
2013-11-07 11:35:00,65.7,60.7,29.97,SW,219,0.0,0.0,84,0.00,CLR,,0.00,WeatherDisplay:10.37,2013-11-07 16:35:00,
2013-11-07 11:40:00,65.5,60.2,29.97,SSW,195,0.0,5.0,83,0.00,CLR,,0.00,WeatherDisplay:10.37,2013-11-07 16:40:00,
2013-11-07 11:45:00,65.3,60.0,29.97,North,9,0.0,5.0,83,0.00,CLR,,0.00,WeatherDisplay:10.37,2013-11-07 16:45:00,
2013-11-07 11:50:00,65.1,59.8,29.97,NW,324,0.0,0.0,83,0.00,CLR,,0.00,WeatherDisplay:10.37,2013-11-07 16:50:00,
2013-11-07 11:55:00,65.1,59.5,29.97,NW,318,0.0,0.0,82,0.00,CLR,,0.00,WeatherDisplay:10.37,2013-11-07 16:55:00,
2013-11-07 12:00:00,65.1,59.5,29.97,NNW,327,0.0,0.0,82,0.00,CLR,,0.00,WeatherDisplay:10.37,2013-11-07 17:00:00,
2013-11-07 12:05:00,65.1,59.1,29.97,NNW,335,0.0,5.0,81,0.00,CLR,,0.00,WeatherDisplay:10.37,2013-11-07 17:05:00,
2013-11-07 12:10:00,64.9,59.0,29.97,NW,316,0.0,5.0,81,0.00,CLR,,0.00,WeatherDisplay:10.37,2013-11-07 17:10:00,
2013-11-07 12:15:00,64.9,58.6,29.97,WNW,288,0.0,0.0,80,0.00,CLR,,0.00,WeatherDisplay:10.37,2013-11-07 17:15:00,
2013-11-07 12:20:00,64.9,58.6,29.97,NW,306,0.0,7.0,80,0.00,CLR,,0.00,WeatherDisplay:10.37,2013-11-07 17:20:00,
2013-11-07 12:25:00,65.1,58.8,29.97,NNW,330,0.0,7.0,80,0.00,CLR,,0.00,WeatherDisplay:10.37,2013-11-07 17:25:00,
2013-11-07 12:30:00,65.1,58.4,29.97,NNW,334,0.0,0.0,79,0.00,CLR,,0.00,WeatherDisplay:10.37,2013-11-07 17:30:00,
2013-11-07 12:35:00,65.1,58.4,29.97,NNW,335,0.0,0.0,79,0.00,CLR,,0.00,WeatherDisplay:10.37,2013-11-07 17:35:00,
2013-11-07 12:40:00,65.1,58.4,29.97,NNW,338,0.0,8.0,79,0.00,CLR,,0.00,WeatherDisplay:10.37,2013-11-07 17:40:00,
2013-11-07 12:45:00,65.1,58.1,29.94,NNW,335,0.0,8.0,78,0.00,CLR,,0.00,WeatherDisplay:10.37,2013-11-07 17:45:00,
2013-11-07 12:50:00,65.3,58.3,29.94,NNW,333,0.0,0.0,78,0.00,CLR,,0.00,WeatherDisplay:10.37,2013-11-07 17:50:00,
2013-11-07 12:55:00,65.5,58.4,29.94,NNW,327,0.0,5.0,78,0.00,CLR,,0.00,WeatherDisplay:10.37,2013-11-07 17:55:00,
2013-11-07 13:05:00,65.7,58.3,29.94,NNW,328,0.0,0.0,77,0.00,CLR,,0.00,WeatherDisplay:10.37,2013-11-07 18:05:00,
2013-11-07 13:10:00,65.5,58.1,29.94,North,4,0.0,0.0,77,0.00,CLR,,0.00,WeatherDisplay:10.37,2013-11-07 18:10:00,
2013-11-07 13:15:00,65.6,58.2,29.94,NNW,330,0.0,0.0,77,0.00,CLR,,0.00,WeatherDisplay:10.37,2013-11-07 18:15:00,
2013-11-07 13:20:00,65.7,58.3,29.94,WNW,286,0.0,0.0,77,0.00,CLR,,0.00,WeatherDisplay:10.37,2013-11-07 18:20:00,
2013-11-07 13:25:00,65.7,58.3,29.94,NW,306,0.0,0.0,77,0.00,CLR,,0.00,WeatherDisplay:10.37,2013-11-07 18:25:00,
2013-11-07 13:30:00,66.0,58.6,29.94,NW,324,0.0,0.0,77,0.00,CLR,,0.00,WeatherDisplay:10.37,2013-11-07 18:30:00,
2013-11-07 13:35:00,66.4,58.9,29.94,WSW,252,0.0,0.0,77,0.00,CLR,,0.00,WeatherDisplay:10.37,2013-11-07 18:35:00,
2013-11-07 13:40:00,66.7,59.3,29.94,West,263,0.0,5.0,77,0.00,CLR,,0.00,WeatherDisplay:10.37,2013-11-07 18:40:00,
2013-11-07 13:45:00,67.0,59.2,29.94,NNW,329,0.0,5.0,76,0.00,CLR,,0.00,WeatherDisplay:10.37,2013-11-07 18:45:00,
2013-11-07 13:50:00,67.3,59.5,29.94,NNW,339,3.0,7.0,76,0.00,CLR,,0.00,WeatherDisplay:10.37,2013-11-07 18:50:00,
2013-11-07 13:55:00,67.6,59.4,29.94,NNW,338,2.0,5.0,75,0.00,CLR,,0.00,WeatherDisplay:10.37,2013-11-07 18:55:00,
2013-11-07 14:00:00,68.0,59.4,29.94,NW,323,0.0,5.0,74,0.00,CLR,,0.00,WeatherDisplay:10.37,2013-11-07 19:00:00,
2013-11-07 14:05:00,68.3,59.3,29.94,NNW,339,0.0,0.0,73,0.00,CLR,,0.00,WeatherDisplay:10.37,2013-11-07 19:05:00,
2013-11-07 14:10:00,68.5,59.2,29.94,North,351,2.0,6.0,72,0.00,CLR,,0.00,WeatherDisplay:10.37,2013-11-07 19:10:00,
2013-11-07 14:15:00,68.6,57.6,29.94,NNW,329,3.0,7.0,68,0.00,CLR,,0.00,WeatherDisplay:10.37,2013-11-07 19:15:00,
2013-11-07 14:20:00,68.7,57.7,29.94,NNW,327,2.0,8.0,68,0.00,CLR,,0.00,WeatherDisplay:10.37,2013-11-07 19:20:00,
2013-11-07 14:30:00,69.1,56.8,29.94,NNW,331,0.0,0.0,65,0.00,CLR,,0.00,WeatherDisplay:10.37,2013-11-07 19:30:00,
2013-11-07 14:35:00,69.1,56.4,29.94,NE,39,3.0,7.0,64,0.00,CLR,,0.00,WeatherDisplay:10.37,2013-11-07 19:35:00,
2013-11-07 14:40:00,69.3,56.1,29.94,North,350,3.0,8.0,63,0.00,CLR,,0.00,WeatherDisplay:10.37,2013-11-07 19:40:00,
2013-11-07 14:45:00,69.4,55.9,29.94,NNW,339,3.0,8.0,62,0.00,CLR,,0.00,WeatherDisplay:10.37,2013-11-07 19:45:00,
2013-11-07 14:50:00,69.6,55.6,29.94,NW,308,1.0,8.0,61,0.00,CLR,,0.00,WeatherDisplay:10.37,2013-11-07 19:50:00,
2013-11-07 14:55:00,69.8,54.8,29.94,WNW,301,0.0,7.0,59,0.00,CLR,,0.00,WeatherDisplay:10.37,2013-11-07 19:55:00,
2013-11-07 15:00:00,70.0,55.0,29.94,NW,323,2.0,10.0,59,0.00,CLR,,0.00,WeatherDisplay:10.37,2013-11-07 20:00:00,
2013-11-07 15:05:00,69.8,54.4,29.94,NNW,337,0.0,0.0,58,0.00,CLR,,0.00,WeatherDisplay:10.37,2013-11-07 20:05:00,
2013-11-07 15:10:00,69.8,54.4,29.94,NNE,14,0.0,0.0,58,0.00,CLR,,0.00,WeatherDisplay:10.37,2013-11-07 20:10:00,
2013-11-07 15:15:00,69.8,54.4,29.94,NNW,343,1.0,5.0,58,0.00,CLR,,0.00,WeatherDisplay:10.37,2013-11-07 20:15:00,
2013-11-07 15:20:00,69.6,53.7,29.94,NW,326,0.0,8.0,57,0.00,CLR,,0.00,WeatherDisplay:10.37,2013-11-07 20:20:00,
2013-11-07 15:25:00,69.4,53.5,29.94,NW,321,0.0,4.0,57,0.00,CLR,,0.00,WeatherDisplay:10.37,2013-11-07 20:25:00,
2013-11-07 15:30:00,69.3,52.9,29.94,NNW,335,0.0,7.0,56,0.00,CLR,,0.00,WeatherDisplay:10.37,2013-11-07 20:30:00,
2013-11-07 15:35:00,69.1,52.7,29.94,NNW,338,2.0,9.0,56,0.00,CLR,,0.00,WeatherDisplay:10.37,2013-11-07 20:35:00,
2013-11-07 15:40:00,69.1,52.2,29.94,NNW,333,0.0,5.0,55,0.00,CLR,,0.00,WeatherDisplay:10.37,2013-11-07 20:40:00,
2013-11-07 15:50:00,69.1,51.7,29.94,NNW,333,0.0,7.0,54,0.00,CLR,,0.00,WeatherDisplay:10.37,2013-11-07 20:50:00,
2013-11-07 15:55:00,69.1,51.2,29.94,NNW,332,0.0,5.0,53,0.00,CLR,,0.00,WeatherDisplay:10.37,2013-11-07 20:55:00,
2013-11-07 16:00:00,69.1,51.2,29.94,NNW,348,0.0,0.0,53,0.00,CLR,,0.00,WeatherDisplay:10.37,2013-11-07 21:00:00,
2013-11-07 16:05:00,69.1,50.7,29.94,NNW,346,1.0,5.0,52,0.00,CLR,,0.00,WeatherDisplay:10.37,2013-11-07 21:05:00,
2013-11-07 16:10:00,68.9,50.5,29.94,NNW,342,2.0,7.0,52,0.00,CLR,,0.00,WeatherDisplay:10.37,2013-11-07 21:10:00,
2013-11-07 16:15:00,68.9,50.5,29.94,NNW,332,0.0,8.0,52,0.00,CLR,,0.00,WeatherDisplay:10.37,2013-11-07 21:15:00,
2013-11-07 16:20:00,68.7,49.9,29.94,NNW,346,0.0,6.0,51,0.00,CLR,,0.00,WeatherDisplay:10.37,2013-11-07 21:20:00,
2013-11-07 16:25:00,68.7,49.9,29.94,NNE,13,2.0,7.0,51,0.00,CLR,,0.00,WeatherDisplay:10.37,2013-11-07 21:25:00,
2013-11-07 16:30:00,68.5,49.2,29.94,NNW,348,0.0,0.0,50,0.00,CLR,,0.00,WeatherDisplay:10.37,2013-11-07 21:30:00,
2013-11-07 16:35:00,68.5,49.1,29.94,NNW,329,3.0,7.0,50,0.00,CLR,,0.00,WeatherDisplay:10.37,2013-11-07 21:35:00,
2013-11-07 16:40:00,68.4,48.5,29.94,NNW,329,5.0,7.0,49,0.00,CLR,,0.00,WeatherDisplay:10.37,2013-11-07 21:40:00,
2013-11-07 16:45:00,68.2,48.3,29.94,NNW,334,5.0,8.0,49,0.00,CLR,,0.00,WeatherDisplay:10.37,2013-11-07 21:45:00,
2013-11-07 16:50:00,68.0,47.6,29.94,NNW,344,3.0,8.0,48,0.00,CLR,,0.00,WeatherDisplay:10.37,2013-11-07 21:50:00,
2013-11-07 16:55:00,67.6,47.2,29.94,NNW,339,0.0,7.0,48,0.00,CLR,,0.00,WeatherDisplay:10.37,2013-11-07 21:55:00,
2013-11-07 17:05:00,66.9,44.3,29.97,NW,326,2.0,8.0,44,0.00,CLR,,0.00,WeatherDisplay:10.37,2013-11-07 22:05:00,
2013-11-07 17:10:00,66.6,43.4,29.97,NNW,331,2.0,10.0,43,0.00,CLR,,0.00,WeatherDisplay:10.37,2013-11-07 22:10:00,
2013-11-07 17:15:00,66.0,42.2,29.97,NNW,340,6.0,13.0,42,0.00,CLR,,0.00,WeatherDisplay:10.37,2013-11-07 22:15:00,
2013-11-07 17:20:00,65.4,41.0,29.97,NW,326,5.0,10.0,41,0.00,CLR,,0.00,WeatherDisplay:10.37,2013-11-07 22:20:00,
2013-11-07 17:25:00,64.9,40.6,29.97,NNW,327,0.0,8.0,41,0.00,CLR,,0.00,WeatherDisplay:10.37,2013-11-07 22:25:00,
2013-11-07 17:30:00,64.4,40.2,30.00,North,349,3.0,9.0,41,0.00,CLR,,0.00,WeatherDisplay:10.37,2013-11-07 22:30:00,
2013-11-07 17:35:00,64.0,39.8,30.00,North,357,3.0,10.0,41,0.00,CLR,,0.00,WeatherDisplay:10.37,2013-11-07 22:35:00,
2013-11-07 17:40:00,63.5,38.7,30.00,NNW,327,5.0,9.0,40,0.00,CLR,,0.00,WeatherDisplay:10.37,2013-11-07 22:40:00,
2013-11-07 17:45:00,63.1,39.0,30.00,NW,319,0.0,9.0,41,0.00,CLR,,0.00,WeatherDisplay:10.37,2013-11-07 22:45:00,
2013-11-07 17:50:00,62.7,38.0,30.00,NW,321,3.0,8.0,40,0.00,CLR,,0.00,WeatherDisplay:10.37,2013-11-07 22:50:00,
2013-11-07 17:55:00,62.3,37.7,30.00,NNW,329,0.0,9.0,40,0.00,CLR,,0.00,WeatherDisplay:10.37,2013-11-07 22:55:00,
2013-11-07 18:00:00,62.0,37.4,30.00,North,355,3.0,9.0,40,0.00,CLR,,0.00,WeatherDisplay:10.37,2013-11-07 23:00:00,
2013-11-07 18:05:00,61.5,36.9,30.00,NNW,328,7.0,10.0,40,0.00,CLR,,0.00,WeatherDisplay:10.37,2013-11-07 23:05:00,
2013-11-07 18:10:00,61.0,36.5,30.00,NW,311,1.0,16.0,40,0.00,CLR,,0.00,WeatherDisplay:10.37,2013-11-07 23:10:00,
2013-11-07 18:15:00,60.6,36.1,30.03,NW,322,2.0,10.0,40,0.00,CLR,,0.00,WeatherDisplay:10.37,2013-11-07 23:15:00,
2013-11-07 18:20:00,60.1,35.7,30.03,NW,320,1.0,9.0,40,0.00,CLR,,0.00,WeatherDisplay:10.37,2013-11-07 23:20:00,
2013-11-07 18:25:00,59.8,35.4,30.03,NNW,335,3.0,8.0,40,0.00,CLR,,0.00,WeatherDisplay:10.37,2013-11-07 23:25:00,
2013-11-07 18:30:00,59.5,35.2,30.03,NNW,344,0.0,4.0,40,0.00,CLR,,0.00,WeatherDisplay:10.37,2013-11-07 23:30:00,
2013-11-07 18:40:00,58.7,34.4,30.03,NNW,336,2.0,7.0,40,0.00,CLR,,0.00,WeatherDisplay:10.37,2013-11-07 23:40:00,
2013-11-07 18:45:00,58.3,34.1,30.06,NNW,330,2.0,7.0,40,0.00,CLR,,0.00,WeatherDisplay:10.37,2013-11-07 23:45:00,
2013-11-07 18:50:00,58.1,33.9,30.06,NW,326,3.0,10.0,40,0.00,CLR,,0.00,WeatherDisplay:10.37,2013-11-07 23:50:00,
2013-11-07 18:55:00,57.7,33.6,30.06,NNW,336,3.0,9.0,40,0.00,CLR,,0.00,WeatherDisplay:10.37,2013-11-07 23:55:00,
2013-11-07 19:00:00,57.6,33.4,30.06,NW,312,2.0,10.0,40,0.00,CLR,,0.00,WeatherDisplay:10.37,2013-11-08 00:00:00,
2013-11-07 19:05:00,57.2,33.1,30.06,NW,309,0.0,8.0,40,0.00,CLR,,0.00,WeatherDisplay:10.37,2013-11-08 00:05:00,
2013-11-07 19:10:00,57.0,32.9,30.06,NW,324,2.0,10.0,40,0.00,CLR,,0.00,WeatherDisplay:10.37,2013-11-08 00:10:00,
2013-11-07 19:15:00,56.8,32.8,30.06,NW,324,0.0,8.0,40,0.00,CLR,,0.00,WeatherDisplay:10.37,2013-11-08 00:15:00,
2013-11-07 19:20:00,56.7,32.6,30.06,NNW,330,0.0,8.0,40,0.00,CLR,,0.00,WeatherDisplay:10.37,2013-11-08 00:20:00,
2013-11-07 19:25:00,56.3,32.3,30.06,NNW,333,0.0,6.0,40,0.00,CLR,,0.00,WeatherDisplay:10.37,2013-11-08 00:25:00,
2013-11-07 19:30:00,56.0,32.6,30.06,North,354,0.0,2.0,41,0.00,CLR,,0.00,WeatherDisplay:10.37,2013-11-08 00:30:00,
2013-11-07 19:35:00,55.7,32.4,30.06,North,350,1.0,5.0,41,0.00,CLR,,0.00,WeatherDisplay:10.37,2013-11-08 00:35:00,
2013-11-07 19:40:00,55.4,32.1,30.06,NNW,341,2.0,5.0,41,0.00,CLR,,0.00,WeatherDisplay:10.37,2013-11-08 00:40:00,
2013-11-07 19:45:00,55.2,31.9,30.09,North,1,5.0,7.0,41,0.00,CLR,,0.00,WeatherDisplay:10.37,2013-11-08 00:45:00,
2013-11-07 19:50:00,54.9,31.6,30.09,NNW,343,0.0,10.0,41,0.00,CLR,,0.00,WeatherDisplay:10.37,2013-11-08 00:50:00,
2013-11-07 19:55:00,54.7,31.4,30.09,North,356,2.0,7.0,41,0.00,CLR,,0.00,WeatherDisplay:10.37,2013-11-08 00:55:00,
2013-11-07 20:00:00,54.4,31.2,30.09,NNW,341,1.0,9.0,41,0.00,CLR,,0.00,WeatherDisplay:10.37,2013-11-08 01:00:00,
2013-11-07 20:05:00,54.1,30.9,30.09,NW,325,2.0,4.0,41,0.00,CLR,,0.00,WeatherDisplay:10.37,2013-11-08 01:05:00,
2013-11-07 20:10:00,54.0,30.8,30.09,NNE,24,0.0,4.0,41,0.00,CLR,,0.00,WeatherDisplay:10.37,2013-11-08 01:10:00,
2013-11-07 20:15:00,53.8,30.6,30.09,NNE,14,3.0,7.0,41,0.00,CLR,,0.00,WeatherDisplay:10.37,2013-11-08 01:15:00,
2013-11-07 20:20:00,53.5,30.3,30.09,NNE,17,0.0,6.0,41,0.00,CLR,,0.00,WeatherDisplay:10.37,2013-11-08 01:20:00,
2013-11-07 20:25:00,53.2,30.1,30.09,NE,46,0.0,10.0,41,0.00,CLR,,0.00,WeatherDisplay:10.37,2013-11-08 01:25:00,
2013-11-07 20:30:00,53.1,30.0,30.09,NNE,30,2.0,7.0,41,0.00,CLR,,0.00,WeatherDisplay:10.37,2013-11-08 01:30:00,
2013-11-07 20:40:00,52.7,29.6,30.09,North,357,0.0,6.0,41,0.00,CLR,,0.00,WeatherDisplay:10.37,2013-11-08 01:40:00,
2013-11-07 20:45:00,52.5,29.5,30.09,North,3,2.0,10.0,41,0.00,CLR,,0.00,WeatherDisplay:10.37,2013-11-08 01:45:00,
2013-11-07 20:50:00,52.3,29.3,30.09,North,6,0.0,6.0,41,0.00,CLR,,0.00,WeatherDisplay:10.37,2013-11-08 01:50:00,
2013-11-07 21:00:00,52.0,29.0,30.09,North,6,0.0,5.0,41,0.00,CLR,,0.00,WeatherDisplay:10.37,2013-11-08 02:00:00,
2013-11-07 21:05:00,51.8,28.8,30.09,NNW,337,0.0,7.0,41,0.00,CLR,,0.00,WeatherDisplay:10.37,2013-11-08 02:05:00,
2013-11-07 21:10:00,51.5,28.5,30.09,NNW,337,3.0,8.0,41,0.00,CLR,,0.00,WeatherDisplay:10.37,2013-11-08 02:10:00,
2013-11-07 21:15:00,51.4,28.5,30.09,NNW,341,2.0,7.0,41,0.00,CLR,,0.00,WeatherDisplay:10.37,2013-11-08 02:15:00,
2013-11-07 21:20:00,51.3,28.9,30.09,NW,310,0.0,5.0,42,0.00,CLR,,0.00,WeatherDisplay:10.37,2013-11-08 02:20:00,
2013-11-07 21:30:00,50.9,28.6,30.09,NNE,12,1.0,8.0,42,0.00,CLR,,0.00,WeatherDisplay:10.37,2013-11-08 02:30:00,
2013-11-07 21:35:00,50.7,28.4,30.09,North,352,0.0,8.0,42,0.00,CLR,,0.00,WeatherDisplay:10.37,2013-11-08 02:35:00,
2013-11-07 21:40:00,50.7,28.4,30.09,North,358,2.0,7.0,42,0.00,CLR,,0.00,WeatherDisplay:10.37,2013-11-08 02:40:00,
2013-11-07 21:45:00,50.5,28.3,30.09,ENE,62,0.0,5.0,42,0.00,CLR,,0.00,WeatherDisplay:10.37,2013-11-08 02:45:00,
2013-11-07 21:50:00,50.4,28.1,30.09,NNW,344,2.0,7.0,42,0.00,CLR,,0.00,WeatherDisplay:10.37,2013-11-08 02:50:00,
2013-11-07 21:55:00,50.4,28.1,30.09,NNW,340,0.0,9.0,42,0.00,CLR,,0.00,WeatherDisplay:10.37,2013-11-08 02:55:00,
2013-11-07 22:00:00,50.2,27.9,30.09,NNW,339,0.0,6.0,42,0.00,CLR,,0.00,WeatherDisplay:10.37,2013-11-08 03:00:00,
2013-11-07 22:05:00,50.1,27.9,30.09,NNE,24,2.0,5.0,42,0.00,CLR,,0.00,WeatherDisplay:10.37,2013-11-08 03:05:00,
2013-11-07 22:10:00,50.0,27.8,30.09,ENE,57,0.0,7.0,42,0.00,CLR,,0.00,WeatherDisplay:10.37,2013-11-08 03:10:00,
2013-11-07 22:20:00,49.7,28.1,30.09,North,10,0.0,5.0,43,0.00,CLR,,0.00,WeatherDisplay:10.37,2013-11-08 03:20:00,
2013-11-07 22:25:00,49.6,28.0,30.09,NNE,21,0.0,0.0,43,0.00,CLR,,0.00,WeatherDisplay:10.37,2013-11-08 03:25:00,
2013-11-07 22:30:00,49.6,28.0,30.09,NNE,18,2.0,7.0,43,0.00,CLR,,0.00,WeatherDisplay:10.37,2013-11-08 03:30:00,
2013-11-07 22:35:00,49.6,28.0,30.09,North,356,0.0,5.0,43,0.00,CLR,,0.00,WeatherDisplay:10.37,2013-11-08 03:35:00,
2013-11-07 22:40:00,49.5,27.9,30.09,NNW,328,0.0,6.0,43,0.00,CLR,,0.00,WeatherDisplay:10.37,2013-11-08 03:40:00,
2013-11-07 22:45:00,49.3,27.7,30.09,NNE,33,0.0,0.0,43,0.00,CLR,,0.00,WeatherDisplay:10.37,2013-11-08 03:45:00,
2013-11-07 22:50:00,49.1,27.5,30.09,ENE,72,0.0,4.0,43,0.00,CLR,,0.00,WeatherDisplay:10.37,2013-11-08 03:50:00,
2013-11-07 22:55:00,48.9,27.4,30.09,NE,41,0.0,3.0,43,0.00,CLR,,0.00,WeatherDisplay:10.37,2013-11-08 03:55:00,
2013-11-07 23:00:00,48.7,27.2,30.09,NNE,16,0.0,3.0,43,0.00,CLR,,0.00,WeatherDisplay:10.37,2013-11-08 04:00:00,
2013-11-07 23:05:00,48.6,27.1,30.09,NNE,14,0.0,0.0,43,0.00,CLR,,0.00,WeatherDisplay:10.37,2013-11-08 04:05:00,
2013-11-07 23:10:00,48.4,26.9,30.09,NNE,15,0.0,4.0,43,0.00,CLR,,0.00,WeatherDisplay:10.37,2013-11-08 04:10:00,
2013-11-07 23:15:00,48.2,27.3,30.09,NNE,29,0.0,4.0,44,0.00,CLR,,0.00,WeatherDisplay:10.37,2013-11-08 04:15:00,
2013-11-07 23:20:00,47.8,27.0,30.09,NE,53,0.0,0.0,44,0.00,CLR,,0.00,WeatherDisplay:10.37,2013-11-08 04:20:00,
2013-11-07 23:25:00,47.4,26.5,30.09,ENE,57,0.0,0.0,44,0.00,CLR,,0.00,WeatherDisplay:10.37,2013-11-08 04:25:00,
2013-11-07 23:30:00,46.7,26.5,30.09,ENE,57,0.0,0.0,45,0.00,CLR,,0.00,WeatherDisplay:10.37,2013-11-08 04:30:00,
2013-11-07 23:40:00,45.6,25.5,30.09,ENE,57,0.0,0.0,45,0.00,CLR,,0.00,WeatherDisplay:10.37,2013-11-08 04:40:00,
2013-11-07 23:45:00,45.1,25.5,30.12,ENE,57,0.0,0.0,46,0.00,CLR,,0.00,WeatherDisplay:10.37,2013-11-08 04:45:00,
2013-11-07 23:50:00,44.8,25.8,30.12,ENE,57,0.0,0.0,47,0.00,CLR,,0.00,WeatherDisplay:10.37,2013-11-08 04:50:00,
2013-11-07 23:55:00,44.4,25.4,30.12,ENE,57,0.0,0.0,47,0.00,CLR,,0.00,WeatherDisplay:10.37,2013-11-08 04:55:00,